Regional Weather Roundup
Issued by NWS

Home | Current Version | Previous Version | Text Only | Print | Product List | Glossary Off
Versions: 1 2 3 4 5 6 7 8 9 10 11 12 13 14 15 16 17 18 19 20 21 22 23 24 25 26 27 28 29 30 31 32 33 34 35 36 37 38 39 40 41 42 43 44 45 46 47 48 49 50

000
ASUS44 KMEG 051000
RWRTN
TENNESSEE HOURLY STATE WEATHER ROUNDUP
NATIONAL WEATHER SERVICE MEMPHIS TN
500 AM CDT SUN JUL 05 2015

TNZ002-004-019-021-049-052-054-088>092-051100-
WEST TENNESSEE

CITY           SKY/WX    TMP DP  RH WIND       PRES   REMARKS
MEMPHIS INTL   PTCLDY    71  68  90 SE3       30.06R
NWS MEMPHIS      N/A     68 N/A N/A MISG        N/A
JACKSON        MOCLDY    68  66  93 CALM      30.06R
DYERSBURG        N/A    N/A N/A N/A MISG        N/A
PARIS          CLOUDY    70  68  94 W3        30.06R
LEXINGTON      CLEAR     68  66  94 CALM      30.05R
$$

TNZ008-025-027-028-033-062-065-066-051100-
NORTH MIDDLE TENNESSEE

CITY           SKY/WX    TMP DP  RH WIND       PRES   REMARKS
NASHVILLE      CLOUDY    69  69 100 NW6       30.04R
CLARKSVILLE    CLOUDY    70  69  97 SW5       30.04R FOG
COOKEVILLE     CLOUDY    70  70 100 NW31G72   30.03R
CROSSVILLE     CLOUDY    68  64  87 W6        30.07R
$$

TNZ061-075-076-078-094-096-097-051100-
SOUTH MIDDLE TENNESSEE

CITY           SKY/WX    TMP DP  RH WIND       PRES   REMARKS
FAYETTEVILLE     N/A     64  64 100 SW6       30.07S
WINCHESTER     CLOUDY    66  64  94 W7        30.07R
SHELBYVILLE    CLOUDY    70  68  94 W8          N/A
$$

TNZ017-018-042-046-047-051100-
NORTHEAST TENNESSEE

CITY           SKY/WX    TMP DP  RH WIND       PRES   REMARKS
TRI CITIES     LGT RAIN  68  67  96 CALM      30.10S FOG
ELIZABETHTON   DRIZZLE   64  64 100 E3        30.11S
$$

TNZ012-013-036-069-073-074-051100-
CENTRAL EAST TENNESSEE

CITY           SKY/WX    TMP DP  RH WIND       PRES   REMARKS
KNOXVILLE      CLOUDY    69  67  93 N3        30.04R
OAK RIDGE      RAIN      69  67  93 CALM      30.05R FOG
GATLINBURG     PTSUNNY   66  66 100 CALM      30.05R
$$

TNZ083-085-099-051100-
SOUTHEAST TENNESSEE

CITY           SKY/WX    TMP DP  RH WIND       PRES   REMARKS
CHATTANOOGA    CLOUDY    69  67  93 S7        30.05R
$$

SKY/WX REPORTED AS FAIR MEANS FEW OR NO CLOUDS BELOW
12 THOUSAND FEET.



USA.gov is the U.S. government's official web portal to all federal, state and local government web resources and services.